"Pseudo-MPEC" for A11d6Ft

Created 2024 Nov 8 19:31:02 UT using Find_Orb

Click here for an explanation of pseudo-MPECs

 
 Astrometry: 
     A11d6Ft* C2024 10 20.18942923 59 12.941+01 07 01.38   ~AKLl 13.76oVNEOCPW68
     A11d6Ft  C2024 10 20.19906600 02 58.836+01 03 34.20   ~AKLl 13.91oVNEOCPW68
     A11d6Ft  C2024 10 20.21092800 07 38.434+00 59 23.42   ~AKLl 13.84oVNEOCPW68
     A11d6Ft  C2024 10 20.21409700 08 53.563+00 58 17.18   ~AKLl 14.12oVNEOCPW68
     A11d6Ft  C2024 10 20.22186500 11 58.214+00 55 36.37   ~AKLl 14.18oVNEOCPW68

Station data:
(W68) ATLAS Chile, Rio Hurtado  (S30.471010 W70.764980)  Chile.  Observers L.
   Denneau, R. Siverd, J. Tonry, H. Weiland. Measurers L. Denneau, N.
   Erasmus, A. Fitzsimmons, A. Lawrence, J. Robinson, R. Siverd, J. Tonry, H.
   Weiland. 0.5-m reflector + CCD.

Orbital elements:  A11d6Ft
   Perigee 2024 Oct 19.27903 +/- 0.0894 TT =  6:41:47 (JD 2460602.77903)
Epoch 2024 Oct 20.0 TT = JDT 2460603.5                           AutoNEOCP
M 147.49779102 +/- 8                (J2000 equator)
n 204.58123239 +/- 17.2             Peri.   20.26049 +/- 4.9
a 61568.6521 +/- 3445               Node   157.75910 +/- 1.0
e   0.3089204 +/- 0.043             Incl.    3.08971 +/- 0.06
P2533.909m/1.760d          H 29.62  G  0.15   U 14.6
q 42548.8385 +/- 5025    Q 80588.4656 +/- 1873
From 5 observations 2024 Oct. 20 (46.7 min); mean residual 0".29
Residuals in arcseconds: 
241020 W68  .18-  .00     241020 W68  .69-  .02+    241020 W68  .09+  .00     
241020 W68  .48+  .01-    241020 W68  .30+  .01-    

Ephemerides (geocentric):
Date (UTC) HH   RA             Dec           delta  r     elong  mag " sig PA
---- --------  ------------   ------------  ------ ------ -----  --- --------
2024 11 08 20  02 24 39.667   -02 41 19.22   73602 0.9910 159.0 14.1 592'  91
2024 11 08 21  02 47 59.156   -02 49 47.03   71667 0.9910 160.3 14.0 614'  91
2024 11 08 22  03 12 41.389   -02 56 49.85   69509 0.9910 159.9 13.9 640'  91
2024 11 08 23  03 39 03.885   -03 02 05.34   67140 0.9910 157.6 13.9 672'  90
2024 11 09 00  04 07 27.523   -03 05 03.54   64576 0.9909 153.6 14.0 711'  90
2024 11 09 01  04 38 17.205   -03 05 04.55   61845 0.9909 148.1 14.0 757'  89
2024 11 09 02  05 12 02.424   -03 01 16.03   58981 0.9908 141.3 14.1 813'  89
2024 11 09 03  05 49 17.414   -02 52 31.21   56038 0.9908 133.3 14.2 879'  89
2024 11 09 04  06 30 40.224   -02 37 29.34   53089 0.9907 124.0 14.4 957'  88
2024 11 09 05  07 16 49.546   -02 14 42.55   50234 0.9906 113.4 14.6  17d  88
2024 11 09 06  08 08 17.491   -01 42 55.59   47607 0.9905 101.4 14.9  19d  87
2024 11 09 07  09 05 16.603   -01 01 45.79   45372 0.9905  88.0 15.3  20d  87
2024 11 09 08  10 07 21.771   -00 12 40.02   43709 0.9904  73.5 15.9  21d  87
2024 11 09 09  11 13 14.197   +00 40 21.18   42786 0.9903  58.2 16??  22d  87
2024 11 09 10  12 20 41.736   +01 31 09.51   42709 0.9902  43.1 18??  22d  87
2024 11 09 11  13 27 05.977   +02 13 29.75   43489 0.9902  29.7 20??  21d  88
2024 11 09 12  14 30 05.605   +02 43 23.57   45032 0.9901  21.0 22??  20d  89
2024 11 09 13  15 28 09.170   +03 00 06.96   47180 0.9901  21.2 22??  18d  89
2024 11 09 14  16 20 41.177   +03 05 21.66   49751 0.9901  28.4 21??  17d  90
2024 11 09 15  17 07 48.201   +03 01 49.36   52576 0.9901  37.4 19?? 930'  91
2024 11 09 16  17 50 00.105   +02 52 08.79   55517 0.9901  46.5 18?? 863'  91
2024 11 09 17  18 27 55.540   +02 38 28.21   58467 0.9901  54.9 17?? 807'  92
2024 11 09 18  19 02 13.512   +02 22 21.21   61348 0.9902  62.8 17.3 759'  92
2024 11 09 19  19 33 29.501   +02 04 52.17   64106 0.9902  70.0 16.9 720'  93
2024 11 09 20  20 02 14.199   +01 46 43.77   66701 0.9902  76.6 16.6 687'  93
2024 11 09 21  20 28 53.542   +01 28 23.56   69107 0.9903  82.9 16.4 660'  93
2024 11 09 22  20 53 49.243   +01 10 08.88   71303 0.9903  88.7 16.2 638'  93
2024 11 09 23  21 17 19.482   +00 52 10.41   73279 0.9903  94.2 16.1 620'  93
2024 11 10 00  21 39 39.566   +00 34 34.43   75025 0.9904  99.4 15.9 605'  93
2024 11 10 01  22 01 02.510   +00 17 24.47   76536 0.9904 104.3 15.8 593'  93
2024 11 10 02  22 21 39.529   +00 00 42.31   77807 0.9904 109.1 15.7 584'  93
2024 11 10 03  22 41 40.439   -00 15 31.30   78837 0.9905 113.7 15.5 577'  93
2024 11 10 04  23 01 13.997   -00 31 16.19   79624 0.9905 118.2 15.4 572'  93
2024 11 10 05  23 20 28.180   -00 46 32.38   80166 0.9905 122.6 15.3 570'  93
2024 11 10 06  23 39 30.422   -01 01 19.91   80465 0.9906 126.9 15.2 569'  93
2024 11 10 07  23 58 27.830   -01 15 38.57   80518 0.9906 131.1 15.1 570'  93
2024 11 10 08  00 17 27.376   -01 29 27.78   80326 0.9906 135.3 15.0 574'  93
2024 11 10 09  00 36 36.086   -01 42 46.39   79890 0.9906 139.3 14.8 579'  92
2024 11 10 10  00 56 01.229   -01 55 32.46   79209 0.9906 143.3 14.7 587'  92
2024 11 10 11  01 15 50.519   -02 07 43.05   78285 0.9906 147.2 14.6 597'  92
2024 11 10 12  01 36 12.340   -02 19 13.89   77118 0.9906 151.0 14.4 610'  92
2024 11 10 13  01 57 16.005   -02 29 58.97   75710 0.9906 154.4 14.3 627'  92
2024 11 10 14  02 19 12.064   -02 39 50.00   74065 0.9906 157.3 14.2 647'  91
2024 11 10 15  02 42 12.665   -02 48 35.61   72187 0.9906 159.2 14.0 671'  91
2024 11 10 16  03 06 32.009   -02 56 00.44   70084 0.9906 159.7 14.0 700'  91
2024 11 10 17  03 32 26.870   -03 01 43.68   67765 0.9905 158.5 13.9 736'  90
2024 11 10 18  04 00 17.220   -03 05 17.43   65248 0.9905 155.3 13.9 779'  90
2024 11 10 19  04 30 26.898   -03 06 04.39   62555 0.9905 150.5 14.0 832'  90